Simultaneous Nadir Overpasses (SNOs) Predictions

Prediction of SNOs between AQUA and NOAA-19 Satellite Orbit:

Table of predicted SNOs for the next 14.0 days since TLE Epoch: 3/25/2016
Index Date (AQUA) Time (AQUA) Lat,Lon (AQUA) SZA (AQUA ) Date (NOAA-19) Time (NOAA-19) Lat,Lon (NOAA-19) SZA (NOAA-19 ) Distance(km) Time Diff (sec)
1 03/27/2016 11:27:02 80.75, -29.55 79.94 03/27/2016 11:27:12 80.74, -29.47 79.92 1.51 10
2 03/29/2016 16:11:23 80.77,-100.91 79.12 03/29/2016 16:10:20 80.77,-101.00 79.16 1.77 63
3 03/29/2016 17:00:49 -80.75, 66.92 100.93 03/29/2016 17:01:20 -80.75, 66.78 100.93 2.53 31
4 03/31/2016 21:45:10 -80.78, -4.46 101.75 03/31/2016 21:44:28 -80.78, -4.55 101.72 1.72 42
5 03/31/2016 22:34:35 80.74, 163.70 78.16 03/31/2016 22:35:25 80.74, 163.79 78.13 1.54 50
6 04/03/2016 03:18:56 80.77, 92.25 77.36 04/03/2016 03:18:33 80.77, 92.20 77.38 0.95 23
7 04/03/2016 04:08:22 -80.75, -99.88 102.70 04/03/2016 04:09:34 -80.74, -99.94 102.72 1.06 72
8 04/05/2016 08:52:42 -80.75,-171.02 103.53 04/05/2016 08:52:41 -80.76,-170.98 103.53 0.91 1
9 04/07/2016 13:37:03 -80.79, 117.46 104.30 04/07/2016 13:35:49 -80.78, 117.59 104.29 2.49 74




NCC Satellite Simultaneous Nadir Overpasses (SNOs) Prediction Service
